Location: Mahannah Oil Field
(37.4664°N, 96.6003°W)
Time: 09:26:53
(UTC+00:00)

Courier 1B - Pass Details

Date: 28 January 2021
Orbit: 962 x 1209 km, 28.3° (Epoch: 02 March)

Event Time Altitude Azimuth Distance (km) Brightness Sun altitude
Rises 02:28:38 0° 211° (SSW) 3,942 11.0 -32.4°
Reaches altitude 10° 02:32:39 10° 192° (SSW) 2,933 10.1 -33.2°
Enters shadow 02:34:02 13° 182° (S) 2,684 9.8 -33.5°
Maximum altitude 02:36:48 16° 156° (SSE) 2,444 - -34.0°
Drops below altitude 10° 02:40:49 10° 120° (ESE) 2,830 - -34.8°
Sets 02:44:35 0° 100° (E) 3,737 - -35.6°
